TimeEST,TemperatureF,Dew PointF,Humidity,Sea Level PressureIn,VisibilityMPH,Wind Direction,Wind SpeedMPH,Gust SpeedMPH,PrecipitationIn,Events,Conditions,WindDirDegrees,DateUTC
12:35 AM,28.4,24.8,86,29.88,10.0,Calm,Calm,-,N/A,,Clear,0,2014-02-14 05:35:00
12:55 AM,28.4,24.8,86,29.88,10.0,Calm,Calm,-,N/A,,Clear,0,2014-02-14 05:55:00
1:15 AM,28.4,24.8,86,29.88,10.0,Calm,Calm,-,N/A,,Clear,0,2014-02-14 06:15:00
1:35 AM,26.6,23.0,86,29.89,10.0,Calm,Calm,-,N/A,,Clear,0,2014-02-14 06:35:00
1:55 AM,26.6,24.8,93,29.89,10.0,Calm,Calm,-,N/A,,Clear,0,2014-02-14 06:55:00
2:15 AM,24.8,24.8,100,29.89,10.0,Calm,Calm,-,N/A,,Clear,0,2014-02-14 07:15:00
2:35 AM,26.6,24.8,93,29.88,10.0,Calm,Calm,-,N/A,,Clear,0,2014-02-14 07:35:00
2:55 AM,24.8,23.0,93,29.88,10.0,Calm,Calm,-,N/A,,Clear,0,2014-02-14 07:55:00
3:15 AM,24.8,21.2,86,29.87,10.0,SW,3.5,-,N/A,,Clear,220,2014-02-14 08:15:00
3:35 AM,24.8,24.8,100,29.87,10.0,Calm,Calm,-,N/A,,Clear,0,2014-02-14 08:35:00
3:55 AM,24.8,23.0,93,29.87,10.0,Calm,Calm,-,N/A,,Clear,0,2014-02-14 08:55:00
4:15 AM,23.0,21.2,93,29.87,10.0,Calm,Calm,-,N/A,,Clear,0,2014-02-14 09:15:00
4:35 AM,23.0,21.2,93,29.88,10.0,Calm,Calm,-,N/A,,Clear,0,2014-02-14 09:35:00
4:55 AM,24.8,23.0,93,29.87,10.0,Calm,Calm,-,N/A,,Clear,0,2014-02-14 09:55:00
5:15 AM,23.0,21.2,93,29.89,10.0,Calm,Calm,-,N/A,,Clear,0,2014-02-14 10:15:00
5:35 AM,23.0,21.2,93,29.89,10.0,Calm,Calm,-,N/A,,Clear,0,2014-02-14 10:35:00
5:55 AM,21.2,19.4,93,29.88,10.0,Calm,Calm,-,N/A,,Clear,0,2014-02-14 10:55:00
6:15 AM,23.0,21.2,93,29.89,10.0,Calm,Calm,-,N/A,,Clear,0,2014-02-14 11:15:00
6:35 AM,21.2,19.4,93,29.90,10.0,Calm,Calm,-,N/A,,Clear,0,2014-02-14 11:35:00
6:55 AM,21.2,19.4,93,29.89,10.0,Calm,Calm,-,N/A,,Clear,0,2014-02-14 11:55:00
7:15 AM,23.0,21.2,93,29.89,10.0,Calm,Calm,-,N/A,,Clear,0,2014-02-14 12:15:00
7:35 AM,24.8,21.2,86,29.89,10.0,SSW,3.5,-,N/A,,Clear,210,2014-02-14 12:35:00
7:55 AM,24.8,23.0,93,29.89,10.0,Calm,Calm,-,N/A,,Clear,0,2014-02-14 12:55:00
8:15 AM,24.8,21.2,86,29.89,10.0,Calm,Calm,-,N/A,,Clear,0,2014-02-14 13:15:00
8:35 AM,28.4,24.8,86,29.89,10.0,SW,3.5,-,N/A,,Clear,220,2014-02-14 13:35:00
8:55 AM,32.0,24.8,75,29.88,10.0,SSW,3.5,-,N/A,,Clear,210,2014-02-14 13:55:00
9:15 AM,33.8,26.6,75,29.88,10.0,SSW,4.6,-,N/A,,Clear,210,2014-02-14 14:15:00
9:35 AM,35.6,26.6,70,29.89,10.0,SSW,4.6,-,N/A,,Clear,210,2014-02-14 14:35:00
9:55 AM,37.4,26.6,65,29.89,10.0,SSW,5.8,-,N/A,,Clear,210,2014-02-14 14:55:00
10:15 AM,39.2,26.6,61,29.89,10.0,SW,8.1,-,N/A,,Clear,220,2014-02-14 15:15:00
10:35 AM,41.0,26.6,57,29.90,10.0,SSW,6.9,-,N/A,,Clear,210,2014-02-14 15:35:00
10:55 AM,42.8,26.6,53,29.89,10.0,SW,6.9,-,N/A,,Clear,220,2014-02-14 15:55:00
11:15 AM,42.8,28.4,57,29.89,10.0,Variable,6.9,-,N/A,,Clear,0,2014-02-14 16:15:00
11:35 AM,42.8,28.4,57,29.88,10.0,Variable,4.6,-,N/A,,Clear,0,2014-02-14 16:35:00
11:55 AM,44.6,28.4,53,29.89,10.0,Variable,4.6,-,N/A,,Clear,0,2014-02-14 16:55:00
12:15 PM,44.6,28.4,53,29.88,10.0,South,6.9,-,N/A,,Clear,180,2014-02-14 17:15:00
12:35 PM,46.4,28.4,50,29.87,10.0,Variable,6.9,-,N/A,,Clear,0,2014-02-14 17:35:00
12:55 PM,46.4,30.2,53,29.86,10.0,Variable,6.9,-,N/A,,Clear,0,2014-02-14 17:55:00
1:15 PM,46.4,30.2,53,29.84,10.0,Variable,5.8,-,N/A,,Clear,0,2014-02-14 18:15:00
1:35 PM,48.2,30.2,50,29.82,10.0,Variable,6.9,-,N/A,,Clear,0,2014-02-14 18:35:00
1:55 PM,48.2,30.2,50,29.80,10.0,Variable,5.8,-,N/A,,Clear,0,2014-02-14 18:55:00
2:15 PM,48.2,30.2,50,29.79,10.0,Variable,5.8,-,N/A,,Clear,0,2014-02-14 19:15:00
2:35 PM,48.2,30.2,50,29.78,10.0,Variable,6.9,-,N/A,,Clear,0,2014-02-14 19:35:00
2:55 PM,48.2,30.2,50,29.77,10.0,Variable,6.9,-,N/A,,Clear,0,2014-02-14 19:55:00
3:15 PM,48.2,32.0,54,29.76,10.0,Variable,5.8,-,N/A,,Clear,0,2014-02-14 20:15:00
3:35 PM,48.2,32.0,54,29.76,10.0,South,5.8,-,N/A,,Clear,190,2014-02-14 20:35:00
3:55 PM,46.4,32.0,57,29.75,10.0,SSW,5.8,-,N/A,,Clear,200,2014-02-14 20:55:00
4:15 PM,46.4,32.0,57,29.75,10.0,SSW,8.1,-,N/A,,Clear,200,2014-02-14 21:15:00
4:35 PM,46.4,32.0,57,29.74,10.0,SSW,6.9,-,N/A,,Clear,200,2014-02-14 21:35:00
4:55 PM,46.4,33.8,62,29.75,10.0,SW,5.8,-,N/A,,Clear,230,2014-02-14 21:55:00
5:15 PM,46.4,33.8,62,29.74,10.0,SW,4.6,-,N/A,,Partly Cloudy,220,2014-02-14 22:15:00
5:35 PM,46.4,33.8,62,29.72,10.0,South,3.5,-,N/A,,Partly Cloudy,170,2014-02-14 22:35:00
5:55 PM,46.4,33.8,62,29.72,10.0,SSW,3.5,-,N/A,,Partly Cloudy,210,2014-02-14 22:55:00
6:15 PM,44.6,33.8,66,29.71,10.0,SW,4.6,-,N/A,,Scattered Clouds,220,2014-02-14 23:15:00
6:35 PM,44.6,33.8,66,29.72,10.0,WSW,4.6,-,N/A,,Mostly Cloudy,240,2014-02-14 23:35:00
6:55 PM,44.6,33.8,66,29.72,10.0,Calm,Calm,-,N/A,,Scattered Clouds,0,2014-02-14 23:55:00
7:15 PM,42.8,33.8,70,29.73,10.0,SW,3.5,-,N/A,,Partly Cloudy,230,2014-02-15 00:15:00
7:35 PM,42.8,33.8,70,29.73,10.0,Variable,3.5,-,N/A,,Clear,0,2014-02-15 00:35:00
7:55 PM,42.8,33.8,70,29.72,10.0,SW,5.8,-,N/A,,Scattered Clouds,220,2014-02-15 00:55:00
8:15 PM,44.6,33.8,66,29.73,10.0,Variable,5.8,-,N/A,,Mostly Cloudy,0,2014-02-15 01:15:00
8:35 PM,44.6,35.6,71,29.72,10.0,Variable,6.9,-,N/A,,Overcast,0,2014-02-15 01:35:00
8:55 PM,42.8,37.4,81,29.72,10.0,SSW,9.2,-,N/A,,Overcast,210,2014-02-15 01:55:00
9:15 PM,41.0,39.2,93,29.72,8.0,Variable,3.5,-,N/A,,Overcast,0,2014-02-15 02:15:00
9:35 PM,41.0,39.2,93,29.72,6.0,SSW,4.6,-,N/A,,Overcast,210,2014-02-15 02:35:00
9:55 PM,39.2,39.2,100,29.71,8.0,SW,5.8,-,N/A,,Overcast,220,2014-02-15 02:55:00
10:15 PM,39.2,39.2,100,29.71,7.0,Variable,4.6,-,N/A,,Overcast,0,2014-02-15 03:15:00
10:35 PM,39.2,39.2,100,29.70,10.0,South,3.5,-,N/A,,Overcast,190,2014-02-15 03:35:00
10:55 PM,39.2,39.2,100,29.70,10.0,SW,5.8,-,N/A,,Overcast,220,2014-02-15 03:55:00
11:15 PM,39.2,39.2,100,29.69,9.0,Variable,3.5,-,N/A,,Overcast,0,2014-02-15 04:15:00
11:35 PM,39.2,39.2,100,29.70,10.0,SSW,3.5,-,N/A,,Overcast,210,2014-02-15 04:35:00
11:55 PM,39.2,39.2,100,29.69,10.0,SW,4.6,-,N/A,,Overcast,220,2014-02-15 04:55:00